This demonstration page uses our WeatherBlox Daily Observations layout. Learn more.

Hourly Observations for February 20, 2017

Temp ( °F °C ) Dew Point ( °F °C ) Humidity (%) Winds ( mph kmh ) Pressure ( in mb ) Visibility ( mi km ) Precip ( " mm )
12:15 am 00:15 Cloudy with Mist and Fog 55 12.8 53 11.5 92 92 SSE 17 28 29.68 1005 5 8.0467 0 0
12:35 am 00:35 Cloudy with Mist and Fog 55 12.7 53 11.4 92 92 S 17 28 29.68 1005 4 6.43736 0 0
12:55 am 00:55 Cloudy with Mist and Fog 55 12.6 53 11.5 93 93 S 16 26 29.68 1005 4 6.43736 0 0
1:15 am 01:15 Cloudy with Mist and Fog 55 12.7 53 11.5 92 92 S 16 26 29.68 1005 4 6.43736 0 0
1:35 am 01:35 Cloudy with Mist and Fog 55 12.5 52 11.3 92 92 S 14 22 29.68 1005 4 6.43736 0 0
1:55 am 01:55 Cloudy with Mist and Fog 54 12.2 53 11.4 95 95 S 14 22 29.68 1005 3 4.82802 0 0
2:15 am 02:15 Cloudy with Mist and Fog 54 12.1 52 11.2 94 94 S 14 22 29.68 1005 3 4.82802 0 0
2:35 am 02:35 Cloudy with Mist and Fog 54 12 52 11 94 94 S 13 20 29.68 1005 3 4.82802 0 0
2:55 am 02:55 Cloudy with Mist and Fog 54 12.2 53 11.4 95 95 S 13 20 29.71 1006 3 4.82802 0 0
3:15 am 03:15 Cloudy with Mist and Fog 54 12 52 11.2 95 95 S 10 17 29.68 1005 2.5 4.02335 0 0
3:35 am 03:35 Cloudy with Mist and Fog 53 11.9 52 11.1 95 95 S 14 22 29.68 1005 2 3.21868 0 0
3:55 am 03:55 Cloudy with Mist and Fog 53 11.8 52 11.2 96 96 S 12 19 29.68 1005 1.5 2.41401 0 0
4:15 am 04:15 Cloudy with Mist and Fog 53 11.7 52 11.1 96 96 S 10 17 29.68 1005 1.25 2.011675 0 0
4:35 am 04:35 Cloudy with Mist and Fog 53 11.7 52 11.1 96 96 S 8 13 29.71 1006 2 3.21868 0 0
4:55 am 04:55 Mostly Cloudy with Mist and Fog 53 11.5 52 11 97 97 S 10 17 29.71 1006 3 4.82802 0 0
5:15 am 05:15 Partly Cloudy with Mist and Fog 52 11.3 51 10.7 96 96 S 8 13 29.71 1006 3 4.82802 0 0
5:35 am 05:35 Cloudy with Mist and Fog 52 11.2 51 10.6 96 96 S 8 13 29.71 1006 2 3.21868 0 0
5:55 am 05:55 Cloudy with Mist and Fog 52 11.1 51 10.5 96 96 SSW 8 13 29.71 1006 3 4.82802 0 0
6:15 am 06:15 Partly Cloudy with Mist and Fog 52 10.9 51 10.3 96 96 SSW 5 7 29.71 1006 3 4.82802 0 0
6:35 am 06:35 Partly Cloudy with Mist and Fog 51 10.3 49 9.7 96 96 SW 5 7 29.71 1006 2.5 4.02335 0 0
6:55 am 06:55 Partly Cloudy with Mist and Fog 51 10.3 49 9.6 95 95 SW 7 11 29.71 1006 5 8.0467 0 0
7:15 am 07:15 Clear with Mist and Fog 50 10 48 9 94 94 SW 6 9 29.71 1006 5 8.0467 0 0
7:35 am 07:35 Sunny with Mist and Fog 49 9.3 47 8.2 93 93 S 3 6 29.74 1007 5 8.0467 0 0
7:55 am 07:55 Sunny with Mist and Fog 48 9.1 47 8.1 94 94 SW 5 7 29.77 1008 5 8.0467 0 0
8:15 am 08:15 Sunny 49 9.5 45 7 85 85 WSW 6 9 29.77 1008 10 16.0934 0 0
8:35 am 08:35 Sunny 49 9.6 43 6.3 80 80 W 5 7 29.77 1008 10 16.0934 0 0
8:55 am 08:55 Sunny 49 9.7 41 5.1 73 73 WNW 8 13 29.77 1008 10 16.0934 0 0
9:15 am 09:15 Sunny 49 9.4 42 5.3 76 76 W 8 13 29.77 1008 10 16.0934 0 0
9:35 am 09:35 Sunny 50 10.2 41 4.9 70 70 WNW 9 15 29.74 1007 10 16.0934 0 0
9:55 am 09:55 Sunny 53 11.5 36 2 52 52 WNW 10 17 29.77 1008 10 16.0934 0 0
10:15 am 10:15 Sunny 55 13 32 0.2 42 42 NW 18 30 29.77 1008 10 16.0934 0 0
10:35 am 10:35 Sunny 57 13.8 32 0 39 39 NW 24 39 29.77 1008 10 16.0934 0 0
10:55 am 10:55 Sunny 57 14 34 1.1 42 42 NW 22 35 29.74 1007 10 16.0934 0 0
11:15 am 11:15 Partly Cloudy 57 14.1 36 2.3 45 45 NW 16 26 29.74 1007 10 16.0934 0 0
11:35 am 11:35 Mostly Cloudy 59 14.8 38 3.2 46 46 NW 26 43 29.74 1007 10 16.0934 0 0
11:55 am 11:55 Cloudy 58 14.2 38 3.6 49 49 NNW 21 33 29.74 1007 10 16.0934 0 0
12:15 pm 12:15 Mostly Cloudy 58 14.5 38 3.5 48 48 NNW 24 39 29.77 1008 10 16.0934 0 0
12:35 pm 12:35 Partly Cloudy 59 14.8 38 3.3 46 46 NNW 23 37 29.77 1008 10 16.0934 0 0
12:55 pm 12:55 Partly Cloudy 59 15.1 37 2.8 44 44 NNW 21 33 29.77 1008 10 16.0934 0 0
1:15 pm 13:15 Sunny 60 15.6 36 2.3 41 41 NNW 24 39 29.77 1008 10 16.0934 0 0
1:35 pm 13:35 Sunny 60 15.7 36 2.3 41 41 NNW 22 35 29.77 1008 10 16.0934 0 0
1:55 pm 13:55 Sunny 60 15.7 37 2.5 41 41 NNW 21 33 29.77 1008 10 16.0934 0 0
2:15 pm 14:15 Sunny 59 15.1 36 2.1 42 42 N 23 37 29.77 1008 10 16.0934 0 0
2:35 pm 14:35 Sunny 59 15.1 36 2 41 41 N 16 26 29.77 1008 10 16.0934 0 0
2:55 pm 14:55 Sunny 60 15.7 34 1.2 38 38 N 18 30 29.8 1009 10 16.0934 0 0
3:15 pm 15:15 Sunny 61 16.1 33 0.7 35 35 N 17 28 29.8 1009 10 16.0934 0 0
3:35 pm 15:35 Sunny 61 16.2 32 0.1 34 34 NNW 22 35 29.8 1009 10 16.0934 0 0
3:55 pm 15:55 Sunny 62 16.5 32 0.1 33 33 N 14 22 29.83 1010 10 16.0934 0 0
4:15 pm 16:15 Sunny 61 16.3 31 -0.5 32 32 NNW 14 22 29.83 1010 10 16.0934 0 0
4:35 pm 16:35 Sunny 61 16.2 31 -0.7 32 32 N 16 26 29.83 1010 10 16.0934 0 0
4:55 pm 16:55 Sunny 61 16.1 30 -1 31 31 N 15 24 29.85 1011 10 16.0934 0 0
5:15 pm 17:15 Sunny 60 15.8 30 -1 32 32 NNW 12 19 29.85 1011 10 16.0934 0 0
5:35 pm 17:35 Sunny 60 15.5 31 -0.7 33 33 NNW 9 15 29.88 1012 10 16.0934 0 0
5:55 pm 17:55 Sunny 58 14.6 31 -0.6 35 35 NNW 6 9 29.91 1013 10 16.0934 0 0
6:15 pm 18:15 Sunny 56 13.5 32 -0.2 39 39 NNW 6 9 29.91 1013 10 16.0934 0 0
6:35 pm 18:35 Clear 54 12.1 32 -0.2 43 43 NNW 5 7 29.97 1015 10 16.0934 0 0
6:55 pm 18:55 Clear 52 10.9 31 -0.3 46 46 Calm 29.97 1015 10 16.0934 0 0
7:15 pm 19:15 Clear 48 8.7 31 -0.7 52 52 Calm 30 1016 10 16.0934 0 0
7:35 pm 19:35 Clear 45 7.1 30 -1 57 57 Calm 30 1016 10 16.0934 0 0
7:55 pm 19:55 Clear 46 7.6 31 -0.3 58 58 Calm 30 1016 10 16.0934 0 0
8:15 pm 20:15 Clear 43 6.1 29 -1.4 59 59 Calm 30 1016 10 16.0934 0 0
8:35 pm 20:35 Clear 42 5.8 29 -1.4 60 60 Calm 30 1016 10 16.0934 0 0
8:55 pm 20:55 Clear 42 5.7 30 -0.9 63 63 SW 3 6 30 1016 10 16.0934 0 0
9:15 pm 21:15 Clear 39 3.9 28 -2 66 66 Calm 30.03 1017 10 16.0934 0 0
9:35 pm 21:35 Clear 39 3.8 29 -1.9 67 67 W 3 6 30.03 1017 10 16.0934 0 0
9:55 pm 21:55 Clear 37 2.9 28 -2.2 69 69 Calm 30.06 1018 10 16.0934 0 0
10:15 pm 22:15 Clear 37 2.5 28 -2.1 72 72 Calm 30.09 1019 10 16.0934 0 0
10:35 pm 22:35 Clear 37 2.6 29 -1.9 73 73 S 3 6 30.03 1017 10 16.0934 0 0
10:55 pm 22:55 Clear 32 0.1 26 -3.1 79 79 SE 8 13 30.06 1018 10 16.0934 0 0
11:15 pm 23:15 Clear 34 1.1 27 -2.7 76 76 SSW 8 13 30.06 1018 10 16.0934 0 0
11:35 pm 23:35 Clear 40 4.5 29 -1.6 65 65 S 5 7 30.03 1017 10 16.0934 0 0
11:55 pm 23:55 Clear 41 5.1 29 -1.7 62 62 SSW 7 11 30.03 1017 10 16.0934 0 0

Powered by AerisWeather